Погода в Кетрисановке

Украина / Кировоградская область     47°54′39″N   32°10′09″E
темп.,
°C
ветер,
м/с
пор.,
м/с
влажн.,
%
обл.,
%
осадки,
мм/ч
давл.,
гПа
погр.,
м
24 января, пн
пн2423:00−5ссв71388100 0.0 1025536
02:00−5с81487100 0.0 1026523
05:00−6с91687100 0.0 1025575
08:00−6с91783100 0.0 1026674
11:00−5с10158597 0.1 1026718
14:00−4с91382100 0.1 1025675
17:00−5с71394100 0.7 1026640
20:00−5с71392100 1.4 1026622
25 января, вт
вт2523:00−6с61189100 0.1 1026547
02:00−6с61189100 0.1 1026549
05:00−8с51093100 0.0 1026399
08:00−9с5109391 0.1 1026383
11:00−7с6882100 0.0 1026527
14:00−5с5677100 0.0 1024609
17:00−8ссз23915 0.0 102349
20:00−9ссз22969 0.0 102319
26 января, ср
ср2623:00−10сз119759 0.0 102210
02:00−11зюз2296100 0.0 102119
05:00−9юз2494100 0.0 101966
08:00−9ююз2392100 0.0 101966
11:00−6ююз2388100 0.3 1019251
14:00−4ююз2291100 0.6 1019316
17:00−6ююз119783 0.2 102010
20:00−6ссз359769 0.4 1021112
27 января, чт
чт2723:00−7ссз389674 0.0 1022181
02:00−8ссз37966 0.1 1022132
05:00−10ссз239684 0.0 102247
08:00−8сз2394100 0.0 102244
11:00−5юз348473 0.0 1022362
14:00−4юз467557 0.0 1020476
17:00−5ююз488986 0.0 1019243
20:00−6ююз4997100 0.0 1018184
28 января, пт
пт2823:00−3ююз489898 0.0 1016263
02:00−2юз51197100 0.4 1015328
05:00−2ююз61288100 0.2 1013276
08:00−2юз51187100 0.2 1013249
11:000юз51195100 0.1 1013370
14:00+1юз51098100 0.3 1012539
17:000зюз5129297 0.0 1012309
20:000зюз615895 0.0 1012329